QPF
0.00 0.00 0.00 0.00 0.00 0.00 0.01 0.01 0.01 0.01 0.01 0.01 0.01 0.01 0.02 0.02 0.04 0.06 0.10 0.10 0.09 0.07 0.05 0.03 0.02 0.01 0.01 0.01 0.01 0.01 0.01 0.01 0.02 0.02 0.02 0.02 0.02 0.02 0.03 0.03 0.03 0.02 0.02 0.02
0.00 0.00 0.00 0.00 0.00 0.00 0.00 0.00 0.01 0.01 0.02 0.02 0.01 0.01 0.02 0.02 0.03 0.04 0.06 0.08 0.07 0.06 0.04 0.03 0.02 0.01 0.01 0.01 0.01 0.02 0.03 0.04 0.04 0.04 0.04 0.04 0.04 0.04 0.04 0.03 0.03 0.02 0.01 0.00
0.00 0.00 0.00 0.00 0.00 0.00 0.00 0.00 0.00 0.00 0.01 0.01 0.00 0.00 0.01 0.01 0.02 0.02 0.02 0.03 0.03 0.03 0.03 0.02 0.02 0.02 0.03 0.04 0.05 0.06 0.07 0.07 0.07 0.06 0.06 0.06 0.05 0.04 0.03 0.02 0.01 0.00 0.00 0.00
0.00 0.00 0.00 0.00 0.00 0.00 0.00 0.01 0.00 0.00 0.00 0.00 0.00 0.00 0.00 0.00 0.00 0.00 0.00 0.01 0.01 0.01 0.02 0.02 0.03 0.04 0.05 0.06 0.07 0.08 0.09 0.09 0.09 0.08 0.07 0.06 0.04 0.03 0.01 0.01 0.00 0.00 0.00 0.00
0.00 0.00 0.00 0.00 0.00 0.00 0.00 0.01 0.01 0.00 0.00 0.00 0.00 0.00 0.00 0.00 0.00 0.00 0.00 0.00 0.01 0.01 0.02 0.02 0.04 0.05 0.06 0.08 0.10 0.11 0.11 0.09 0.07 0.05 0.04 0.03 0.02 0.01 0.00 0.00 0.00 0.00 0.00 0.00
0.01 0.01 0.01 0.01 0.00 0.00 0.01 0.02 0.00 0.00 0.00 0.00 0.00 0.00 0.00 0.00 0.00 0.00 0.00 0.01 0.01 0.01 0.02 0.04 0.05 0.05 0.06 0.08 0.08 0.07 0.06 0.04 0.03 0.02 0.01 0.01 0.00 0.00 0.00 0.00 0.00 0.00 0.00 0.00
0.03 0.02 0.03 0.01 0.01 0.01 0.02 0.02 0.00 0.00 0.00 0.00 0.00 0.00 0.00 0.00 0.00 0.00 0.00 0.01 0.01 0.01 0.02 0.03 0.03 0.03 0.04 0.04 0.03 0.02 0.02 0.01 0.00 0.00 0.00 0.00 0.00 0.00 0.00 0.00 0.00 0.00 0.00 0.00
0.04 0.04 0.04 0.01 0.01 0.01 0.02 0.01 0.00 0.00 0.00 0.00 0.00 0.00 0.00 0.01 0.01 0.01 0.01 0.01 0.01 0.01 0.02 0.02 0.02 0.01 0.01 0.01 0.01 0.00 0.00 0.00 0.00 0.00 0.00 0.00 0.00 0.00 0.00 0.00 0.00 0.00 0.00 0.00
0.05 0.05 0.03 0.01 0.00 0.00 0.00 0.00 0.00 0.00 0.00 0.00 0.00 0.01 0.01 0.01 0.01 0.01 0.02 0.02 0.01 0.01 0.01 0.01 0.01 0.01 0.00 0.00 0.00 0.00 0.01 0.01 0.00 0.00 0.00 0.00 0.00 0.00 0.00 0.00 0.00 0.00 0.00 0.00
0.03 0.03 0.02 0.01 0.00 0.00 0.00 0.00 0.00 0.00 0.00 0.01 0.01 0.02 0.02 0.02 0.02 0.02 0.02 0.01 0.01 0.01 0.00 0.00 0.00 0.00 0.00 0.00 0.00 0.00 0.01 0.01 0.01 0.01 0.00 0.00 0.00 0.00 0.00 0.00 0.00 0.00 0.00 0.00
0.03 0.02 0.01 0.00 0.00 0.00 0.00 0.00 0.00 0.00 0.01 0.02 0.03 0.04 0.04 0.03 0.02 0.02 0.01 0.01 0.01 0.00 0.00 0.00 0.00 0.00 0.00 0.00 0.00 0.01 0.01 0.01 0.01 0.00 0.00 0.00 0.00 0.00 0.00 0.00 0.00 0.00 0.00 0.00
0.02 0.01 0.01 0.00 0.00 0.00 0.00 0.00 0.00 0.01 0.02 0.04 0.05 0.05 0.04 0.02 0.01 0.01 0.01 0.01 0.01 0.00 0.00 0.00 0.00 0.00 0.00 0.00 0.00 0.00 0.00 0.00 0.00 0.00 0.00 0.00 0.00 0.00 0.00 0.00 0.00 0.00 0.00 0.00
0.00 0.00 0.00 0.00 0.00 0.00 0.00 0.00 0.01 0.01 0.02 0.04 0.04 0.04 0.03 0.02 0.01 0.01 0.01 0.01 0.00 0.00 0.00 0.00 0.00 0.00 0.00 0.00 0.00 0.00 0.00 0.00 0.00 0.00 0.00 0.00 0.00 0.01 0.01 0.00 0.00 0.00 0.00 0.00
0.00 0.00 0.00 0.00 0.00 0.00 0.00 0.01 0.01 0.02 0.03 0.03 0.02 0.03 0.02 0.01 0.01 0.01 0.00 0.00 0.00 0.00 0.00 0.00 0.00 0.00 0.00 0.00 0.00 0.00 0.00 0.00 0.00 0.00 0.00 0.00 0.00 0.00 0.00 0.01 0.01 0.01 0.00 0.00
0.00 0.00 0.00 0.01 0.01 0.01 0.01 0.01 0.01 0.03 0.03 0.02 0.01 0.01 0.01 0.00 0.00 0.00 0.00 0.00 0.00 0.00 0.00 0.00 0.00 0.00 0.00 0.00 0.00 0.00 0.00 0.00 0.00 0.00 0.00 0.00 0.00 0.00 0.00 0.00 0.00 0.00 0.00 0.00
0.00 0.00 0.00 0.00 0.01 0.01 0.02 0.01 0.01 0.01 0.01 0.01 0.01 0.01 0.00 0.00 0.00 0.00 0.00 0.00 0.00 0.00 0.00 0.00 0.00 0.00 0.00 0.00 0.00 0.00 0.00 0.00 0.00 0.00 0.00 0.00 0.00 0.00 0.00 0.00 0.00 0.00 0.00 0.00
0.00 0.00 0.00 0.00 0.01 0.01 0.01 0.01 0.01 0.01 0.01 0.01 0.00 0.00 0.00 0.00 0.00 0.00 0.00 0.00 0.00 0.00 0.00 0.00 0.00 0.00 0.00 0.00 0.00 0.01 0.01 0.00 0.00 0.00 0.00 0.00 0.00 0.00 0.00 0.00 0.00 0.00 0.00 0.00
0.00 0.00 0.00 0.00 0.00 0.00 0.00 0.00 0.00 0.00 0.00 0.00 0.00 0.00 0.00 0.00 0.00 0.00 0.00 0.00 0.00 0.00 0.00 0.00 0.00 0.00 0.00 0.00 0.00 0.00 0.01 0.01 0.00 0.00 0.00 0.00 0.00 0.00 0.00 0.00 0.00 0.00 0.00 0.00
0.00 0.00 0.00 0.00 0.00 0.00 0.00 0.00 0.00 0.00 0.00 0.00 0.00 0.00 0.00 0.00 0.00 0.00 0.00 0.00 0.00 0.00 0.00 0.00 0.00 0.00 0.00 0.00 0.00 0.00 0.00 0.01 0.00 0.00 0.00 0.00 0.00 0.00 0.00 0.00 0.00 0.00 0.00 0.00
0.00 0.00 0.00 0.00 0.00 0.00 0.00 0.00 0.00 0.00 0.00 0.00 0.00 0.00 0.00 0.00 0.00 0.00 0.00 0.00 0.00 0.00 0.00 0.00 0.00 0.00 0.00 0.00 0.00 0.00 0.00 0.00 0.00 0.00 0.00 0.00 0.00 0.00 0.00 0.00 0.00 0.00 0.00 0.00
0.00 0.00 0.00 0.00 0.00 0.00 0.00 0.00 0.00 0.00 0.00 0.00 0.00 0.00 0.00 0.00 0.00 0.00 0.00 0.00 0.00 0.00 0.00 0.00 0.00 0.00 0.00 0.00 0.00 0.00 0.00 0.00 0.00 0.00 0.00 0.00 0.00 0.00 0.00 0.00 0.00 0.00 0.00 0.00
0.00 0.00 0.00 0.00 0.00 0.00 0.00 0.00 0.00 0.00 0.00 0.00 0.00 0.00 0.00 0.00 0.00 0.00 0.00 0.00 0.00 0.00 0.00 0.00 0.00 0.00 0.00 0.00 0.00 0.00 0.00 0.00 0.00 0.00 0.00 0.00 0.00 0.00 0.00 0.00 0.00 0.00 0.00 0.00
0.00 0.00 0.00 0.00 0.00 0.00 0.00 0.00 0.00 0.00 0.00 0.00 0.00 0.00 0.00 0.00 0.00 0.00 0.00 0.00 0.00 0.00 0.00 0.00 0.00 0.00 0.00 0.00 0.00 0.00 0.00 0.00 0.00 0.00 0.00 0.00 0.00 0.00 0.00 0.00 0.00 0.00 0.00 0.00
0.00 0.00 0.00 0.00 0.00 0.00 0.00 0.00 0.00 0.00 0.00 0.00 0.00 0.00 0.00 0.00 0.00 0.00 0.00 0.00 0.00 0.00 0.00 0.00 0.00 0.00 0.00 0.00 0.00 0.00 0.00 0.00 0.00 0.00 0.00 0.00 0.00 0.00 0.00 0.00 0.00 0.00 0.00 0.00
0.00 0.00 0.00 0.00 0.00 0.00 0.00 0.00 0.00 0.00 0.00 0.00 0.00 0.00 0.00 0.00 0.00 0.00 0.00 0.00 0.00 0.00 0.00 0.00 0.00 0.00 0.00 0.00 0.00 0.00 0.00 0.00 0.00 0.00 0.00 0.00 0.00 0.00 0.00 0.00 0.00 0.00 0.00 0.00
0.01 0.01 0.01 0.01 0.00 0.00 0.00 0.00 0.00 0.00 0.00 0.00 0.00 0.00 0.00 0.00 0.00 0.00 0.00 0.00 0.00 0.00 0.00 0.00 0.00 0.00 0.00 0.00 0.00 0.00 0.00 0.00 0.00 0.00 0.00 0.00 0.00 0.00 0.00 0.00 0.00 0.00 0.00 0.00
0.03 0.02 0.01 0.01 0.00 0.00 0.00 0.00 0.00 0.00 0.00 0.00 0.00 0.00 0.00 0.00 0.00 0.00 0.00 0.00 0.00 0.00 0.00 0.00 0.00 0.00 0.00 0.00 0.00 0.00 0.00 0.00 0.00 0.00 0.00 0.00 0.00 0.00 0.00 0.00 0.00 0.00 0.00 0.00
MSLP
1010.52 1010.57 1010.70 1010.91 1011.21 1011.59 1012.01 1012.45 1012.87 1013.25 1013.57 1013.83 1014.03 1014.20 1014.34 1014.48 1014.64 1014.83 1015.05 1015.31 1015.59 1015.90 1016.23 1016.58 1016.95 1017.34 1017.73 1018.13 1018.51 1018.87 1019.18 1019.43 1019.63 1019.76 1019.85 1019.91 1019.96 1020.03 1020.15 1020.30 1020.50 1020.72 1020.96 1021.17
1011.56 1011.64 1011.74 1011.87 1012.03 1012.23 1012.48 1012.76 1013.07 1013.40 1013.74 1014.08 1014.42 1014.75 1015.06 1015.35 1015.63 1015.87 1016.10 1016.32 1016.53 1016.76 1017.00 1017.28 1017.60 1017.97 1018.36 1018.77 1019.17 1019.54 1019.86 1020.12 1020.30 1020.42 1020.48 1020.51 1020.53 1020.58 1020.66 1020.78 1020.94 1021.12 1021.31 1021.47
1012.52 1012.65 1012.76 1012.84 1012.92 1013.01 1013.12 1013.29 1013.51 1013.80 1014.15 1014.56 1015.00 1015.46 1015.90 1016.31 1016.67 1016.96 1017.20 1017.39 1017.56 1017.71 1017.88 1018.09 1018.36 1018.67 1019.04 1019.43 1019.82 1020.18 1020.49 1020.73 1020.90 1020.99 1021.03 1021.04 1021.04 1021.06 1021.12 1021.21 1021.34 1021.48 1021.62 1021.73
1013.35 1013.52 1013.65 1013.73 1013.77 1013.81 1013.86 1013.96 1014.13 1014.40 1014.76 1015.21 1015.72 1016.26 1016.80 1017.29 1017.72 1018.06 1018.32 1018.49 1018.62 1018.72 1018.83 1018.97 1019.17 1019.43 1019.74 1020.09 1020.44 1020.76 1021.04 1021.25 1021.39 1021.47 1021.49 1021.49 1021.48 1021.49 1021.54 1021.61 1021.71 1021.81 1021.89 1021.93
1014.00 1014.22 1014.38 1014.48 1014.53 1014.55 1014.58 1014.66 1014.82 1015.07 1015.45 1015.92 1016.48 1017.08 1017.68 1018.23 1018.71 1019.09 1019.36 1019.53 1019.63 1019.69 1019.75 1019.84 1019.98 1020.17 1020.42 1020.70 1020.99 1021.27 1021.50 1021.68 1021.79 1021.85 1021.87 1021.87 1021.87 1021.88 1021.92 1021.98 1022.05 1022.11 1022.14 1022.11
1014.51 1014.75 1014.95 1015.08 1015.16 1015.20 1015.25 1015.33 1015.49 1015.75 1016.13 1016.62 1017.20 1017.83 1018.46 1019.05 1019.56 1019.96 1020.25 1020.42 1020.52 1020.55 1020.58 1020.62 1020.70 1020.83 1021.02 1021.23 1021.47 1021.69 1021.88 1022.03 1022.13 1022.18 1022.20 1022.21 1022.23 1022.25 1022.29 1022.34 1022.38 1022.39 1022.36 1022.26
1014.90 1015.16 1015.39 1015.56 1015.68 1015.76 1015.84 1015.94 1016.11 1016.38 1016.76 1017.25 1017.83 1018.46 1019.10 1019.70 1020.23 1020.64 1020.94 1021.13 1021.22 1021.25 1021.25 1021.26 1021.29 1021.37 1021.50 1021.66 1021.84 1022.02 1022.18 1022.31 1022.40 1022.46 1022.51 1022.54 1022.57 1022.60 1022.64 1022.68 1022.69 1022.67 1022.58 1022.42
1015.25 1015.52 1015.77 1015.98 1016.14 1016.26 1016.37 1016.50 1016.69 1016.96 1017.33 1017.80 1018.35 1018.97 1019.59 1020.19 1020.71 1021.13 1021.44 1021.63 1021.73 1021.75 1021.74 1021.72 1021.73 1021.77 1021.85 1021.97 1022.11 1022.26 1022.41 1022.54 1022.64 1022.72 1022.79 1022.85 1022.90 1022.95 1022.99 1023.01 1022.99 1022.93 1022.79 1022.57
1015.60 1015.87 1016.15 1016.39 1016.59 1016.76 1016.90 1017.05 1017.24 1017.50 1017.85 1018.29 1018.81 1019.39 1019.98 1020.55 1021.06 1021.47 1021.78 1021.97 1022.07 1022.09 1022.08 1022.04 1022.03 1022.04 1022.09 1022.19 1022.31 1022.45 1022.59 1022.73 1022.85 1022.96 1023.05 1023.13 1023.20 1023.26 1023.30 1023.30 1023.26 1023.16 1022.98 1022.72
1015.98 1016.27 1016.57 1016.84 1017.08 1017.28 1017.45 1017.62 1017.81 1018.05 1018.37 1018.77 1019.25 1019.77 1020.32 1020.85 1021.32 1021.72 1022.02 1022.21 1022.30 1022.32 1022.30 1022.26 1022.22 1022.22 1022.25 1022.33 1022.44 1022.58 1022.74 1022.89 1023.03 1023.17 1023.29 1023.39 1023.47 1023.52 1023.55 1023.54 1023.47 1023.34 1023.14 1022.85
1016.38 1016.70 1017.03 1017.34 1017.61 1017.84 1018.03 1018.21 1018.39 1018.62 1018.91 1019.26 1019.68 1020.16 1020.65 1021.14 1021.57 1021.94 1022.22 1022.39 1022.48 1022.49 1022.46 1022.40 1022.36 1022.34 1022.36 1022.43 1022.54 1022.68 1022.84 1023.01 1023.18 1023.33 1023.46 1023.57 1023.65 1023.70 1023.71 1023.68 1023.60 1023.45 1023.23 1022.94
1016.77 1017.12 1017.49 1017.84 1018.15 1018.40 1018.61 1018.79 1018.98 1019.19 1019.44 1019.76 1020.13 1020.55 1021.00 1021.43 1021.83 1022.17 1022.42 1022.57 1022.64 1022.64 1022.59 1022.52 1022.46 1022.43 1022.43 1022.49 1022.60 1022.74 1022.91 1023.09 1023.27 1023.43 1023.56 1023.67 1023.74 1023.78 1023.77 1023.72 1023.62 1023.47 1023.25 1022.97
1017.07 1017.48 1017.89 1018.28 1018.62 1018.91 1019.13 1019.33 1019.51 1019.71 1019.94 1020.22 1020.55 1020.93 1021.33 1021.73 1022.09 1022.40 1022.62 1022.75 1022.80 1022.78 1022.72 1022.63 1022.55 1022.50 1022.49 1022.53 1022.63 1022.77 1022.94 1023.11 1023.29 1023.45 1023.58 1023.68 1023.73 1023.75 1023.73 1023.66 1023.55 1023.40 1023.20 1022.95
1017.23 1017.70 1018.16 1018.59 1018.97 1019.28 1019.53 1019.74 1019.93 1020.12 1020.34 1020.60 1020.91 1021.26 1021.63 1022.00 1022.33 1022.61 1022.81 1022.93 1022.96 1022.92 1022.83 1022.73 1022.63 1022.55 1022.53 1022.55 1022.64 1022.76 1022.92 1023.09 1023.26 1023.40 1023.52 1023.60 1023.64 1023.64 1023.60 1023.52 1023.41 1023.27 1023.09 1022.88
1017.24 1017.75 1018.26 1018.74 1019.15 1019.49 1019.76 1019.99 1020.18 1020.38 1020.59 1020.85 1021.15 1021.49 1021.84 1022.19 1022.52 1022.78 1022.97 1023.07 1023.10 1023.04 1022.94 1022.82 1022.70 1022.61 1022.56 1022.57 1022.63 1022.74 1022.87 1023.03 1023.18 1023.31 1023.41 1023.47 1023.49 1023.48 1023.42 1023.34 1023.24 1023.11 1022.96 1022.79
1017.08 1017.64 1018.20 1018.71 1019.15 1019.52 1019.82 1020.06 1020.27 1020.48 1020.71 1020.97 1021.27 1021.61 1021.96 1022.32 1022.64 1022.90 1023.09 1023.20 1023.21 1023.16 1023.05 1022.91 1022.78 1022.67 1022.60 1022.58 1022.62 1022.71 1022.83 1022.96 1023.09 1023.21 1023.29 1023.34 1023.35 1023.32 1023.27 1023.19 1023.09 1022.98 1022.85 1022.72
1016.80 1017.41 1018.00 1018.55 1019.02 1019.41 1019.73 1020.00 1020.23 1020.45 1020.70 1020.97 1021.29 1021.64 1022.01 1022.38 1022.71 1022.99 1023.19 1023.31 1023.33 1023.28 1023.17 1023.03 1022.88 1022.75 1022.67 1022.63 1022.64 1022.71 1022.80 1022.92 1023.03 1023.14 1023.21 1023.25 1023.25 1023.23 1023.17 1023.10 1023.01 1022.92 1022.82 1022.71
1016.49 1017.13 1017.75 1018.32 1018.82 1019.24 1019.58 1019.86 1020.12 1020.37 1020.63 1020.93 1021.27 1021.64 1022.03 1022.42 1022.78 1023.08 1023.30 1023.43 1023.47 1023.43 1023.33 1023.19 1023.03 1022.89 1022.79 1022.73 1022.72 1022.75 1022.83 1022.93 1023.03 1023.12 1023.19 1023.24 1023.25 1023.23 1023.19 1023.13 1023.06 1022.98 1022.90 1022.81
1016.22 1016.89 1017.54 1018.13 1018.65 1019.08 1019.44 1019.75 1020.02 1020.29 1020.58 1020.91 1021.27 1021.67 1022.09 1022.50 1022.88 1023.21 1023.46 1023.61 1023.67 1023.65 1023.55 1023.41 1023.25 1023.10 1022.97 1022.89 1022.86 1022.88 1022.93 1023.01 1023.11 1023.20 1023.28 1023.33 1023.36 1023.36 1023.34 1023.30 1023.24 1023.18 1023.11 1023.04
1016.07 1016.77 1017.44 1018.05 1018.58 1019.03 1019.40 1019.72 1020.01 1020.30 1020.61 1020.96 1021.35 1021.77 1022.21 1022.65 1023.06 1023.41 1023.68 1023.86 1023.94 1023.93 1023.84 1023.70 1023.54 1023.37 1023.23 1023.13 1023.07 1023.07 1023.11 1023.18 1023.27 1023.37 1023.46 1023.53 1023.58 1023.61 1023.61 1023.60 1023.57 1023.52 1023.47 1023.39
1016.07 1016.80 1017.49 1018.11 1018.64 1019.10 1019.48 1019.81 1020.12 1020.42 1020.75 1021.11 1021.52 1021.96 1022.42 1022.88 1023.30 1023.67 1023.96 1024.15 1024.25 1024.25 1024.17 1024.03 1023.87 1023.69 1023.53 1023.41 1023.34 1023.32 1023.34 1023.41 1023.50 1023.61 1023.72 1023.82 1023.90 1023.96 1024.00 1024.01 1024.01 1023.98 1023.93 1023.86
1016.23 1016.98 1017.67 1018.30 1018.84 1019.29 1019.67 1020.01 1020.32 1020.64 1020.97 1021.35 1021.76 1022.21 1022.68 1023.14 1023.58 1023.95 1024.25 1024.46 1024.56 1024.57 1024.50 1024.37 1024.20 1024.02 1023.86 1023.72 1023.64 1023.61 1023.63 1023.69 1023.79 1023.91 1024.05 1024.17 1024.29 1024.39 1024.46 1024.51 1024.52 1024.51 1024.47 1024.40
1016.50 1017.26 1017.95 1018.57 1019.11 1019.55 1019.93 1020.27 1020.58 1020.90 1021.23 1021.61 1022.02 1022.47 1022.94 1023.40 1023.83 1024.20 1024.50 1024.71 1024.82 1024.84 1024.78 1024.66 1024.50 1024.32 1024.16 1024.03 1023.95 1023.91 1023.94 1024.01 1024.12 1024.26 1024.42 1024.58 1024.72 1024.85 1024.96 1025.03 1025.08 1025.09 1025.06 1024.99
1016.81 1017.57 1018.26 1018.87 1019.38 1019.82 1020.19 1020.52 1020.82 1021.14 1021.47 1021.83 1022.24 1022.68 1023.13 1023.57 1023.99 1024.36 1024.66 1024.87 1024.99 1025.02 1024.97 1024.87 1024.73 1024.57 1024.43 1024.32 1024.25 1024.23 1024.27 1024.36 1024.49 1024.65 1024.82 1025.01 1025.18 1025.34 1025.47 1025.58 1025.64 1025.67 1025.66 1025.60
1017.11 1017.85 1018.52 1019.11 1019.60 1020.02 1020.38 1020.69 1020.99 1021.30 1021.62 1021.97 1022.36 1022.78 1023.21 1023.63 1024.03 1024.39 1024.68 1024.89 1025.02 1025.07 1025.05 1024.98 1024.88 1024.76 1024.66 1024.58 1024.54 1024.56 1024.62 1024.73 1024.88 1025.06 1025.26 1025.47 1025.66 1025.84 1025.99 1026.11 1026.19 1026.23 1026.23 1026.19
1017.32 1018.04 1018.68 1019.24 1019.71 1020.11 1020.45 1020.76 1021.05 1021.34 1021.65 1021.99 1022.36 1022.75 1023.16 1023.56 1023.94 1024.28 1024.57 1024.79 1024.93 1025.01 1025.04 1025.01 1024.96 1024.91 1024.85 1024.83 1024.84 1024.90 1025.00 1025.14 1025.32 1025.52 1025.73 1025.95 1026.15 1026.33 1026.49 1026.62 1026.71 1026.76 1026.77 1026.74
1017.43 1018.10 1018.71 1019.23 1019.68 1020.07 1020.40 1020.70 1020.99 1021.28 1021.58 1021.90 1022.26 1022.63 1023.01 1023.39 1023.75 1024.08 1024.36 1024.59 1024.77 1024.88 1024.96 1025.00 1025.01 1025.03 1025.05 1025.09 1025.16 1025.27 1025.42 1025.59 1025.79 1026.00 1026.22 1026.44 1026.64 1026.82 1026.97 1027.10 1027.19 1027.24 1027.26 1027.24
Thickness
5660 5670 5674 5674 5675 5678 5674 5669 5655 5650 5644 5641 5644 5648 5651 5652 5650 5647 5643 5638 5631 5625 5620 5614 5608 5602 5596 5590 5584 5579 5573 5566 5559 5554 5548 5541 5535 5529 5523 5517 5511 5505 5498 5491
5645 5659 5663 5660 5663 5664 5661 5661 5653 5643 5632 5632 5634 5637 5636 5635 5635 5631 5627 5621 5615 5608 5602 5595 5589 5583 5577 5570 5564 5559 5553 5546 5540 5534 5528 5522 5516 5510 5504 5498 5493 5487 5481 5475
5620 5637 5643 5627 5636 5640 5636 5639 5639 5628 5622 5620 5619 5618 5615 5615 5616 5613 5608 5603 5596 5589 5582 5575 5569 5564 5558 5551 5545 5539 5533 5527 5521 5515 5509 5503 5498 5491 5486 5481 5476 5470 5465 5460
5606 5616 5604 5604 5622 5623 5618 5614 5618 5615 5610 5607 5603 5598 5596 5595 5594 5591 5588 5582 5575 5569 5562 5556 5550 5545 5539 5533 5527 5521 5514 5508 5503 5497 5491 5485 5480 5475 5469 5465 5460 5455 5450 5445
5588 5593 5597 5603 5608 5610 5602 5590 5597 5597 5593 5590 5588 5586 5579 5575 5573 5570 5565 5560 5555 5549 5544 5539 5533 5528 5522 5515 5509 5503 5498 5492 5487 5481 5475 5470 5464 5459 5454 5450 5445 5441 5436 5431
5581 5582 5580 5585 5598 5604 5596 5577 5582 5583 5581 5579 5578 5574 5566 5558 5554 5549 5546 5542 5537 5532 5528 5522 5516 5511 5505 5499 5493 5488 5483 5477 5472 5466 5461 5455 5450 5445 5441 5436 5431 5427 5422 5417
5571 5569 5573 5578 5589 5595 5579 5570 5571 5571 5570 5569 5564 5559 5550 5542 5537 5533 5529 5525 5521 5516 5511 5505 5501 5496 5489 5484 5478 5474 5469 5464 5458 5453 5448 5442 5437 5432 5426 5422 5416 5412 5407 5404
5564 5559 5559 5568 5572 5566 5561 5561 5560 5559 5557 5554 5548 5541 5535 5528 5522 5518 5513 5508 5504 5500 5494 5490 5486 5481 5475 5470 5466 5462 5457 5451 5445 5440 5436 5430 5423 5418 5413 5408 5403 5398 5394 5392
5556 5552 5552 5554 5553 5552 5552 5550 5549 5548 5546 5543 5536 5528 5521 5514 5508 5503 5499 5494 5489 5485 5480 5476 5473 5469 5464 5460 5456 5451 5444 5438 5433 5428 5423 5417 5411 5405 5400 5395 5390 5386 5383 5382
5547 5544 5543 5542 5542 5540 5540 5539 5539 5538 5535 5531 5523 5515 5506 5500 5494 5489 5485 5481 5477 5474 5469 5466 5463 5460 5456 5452 5448 5441 5434 5427 5422 5416 5411 5405 5400 5395 5390 5385 5381 5378 5376 5375
5540 5537 5535 5533 5531 5529 5528 5527 5525 5524 5521 5517 5510 5502 5495 5488 5482 5478 5475 5471 5468 5464 5461 5458 5455 5452 5449 5444 5439 5432 5425 5419 5413 5407 5401 5396 5392 5387 5384 5380 5376 5373 5371 5370
5537 5535 5529 5523 5522 5520 5517 5515 5512 5510 5506 5502 5498 5491 5485 5479 5475 5472 5469 5465 5462 5459 5455 5452 5448 5444 5441 5436 5431 5423 5415 5409 5403 5398 5393 5389 5385 5381 5380 5377 5374 5372 5370 5368
5534 5530 5523 5518 5514 5510 5507 5503 5501 5499 5496 5492 5487 5483 5479 5474 5471 5468 5465 5462 5458 5455 5451 5447 5442 5438 5433 5428 5422 5414 5407 5401 5396 5391 5387 5383 5380 5376 5373 5372 5371 5369 5367 5366
5529 5523 5514 5510 5505 5502 5499 5495 5493 5490 5488 5485 5481 5478 5475 5472 5469 5467 5464 5461 5457 5452 5447 5442 5437 5432 5427 5421 5415 5408 5401 5397 5391 5386 5383 5379 5376 5374 5371 5368 5365 5364 5365 5364
5523 5519 5511 5505 5500 5496 5493 5490 5487 5484 5482 5480 5478 5476 5473 5471 5468 5466 5463 5460 5454 5449 5444 5439 5433 5427 5422 5417 5410 5403 5397 5391 5387 5383 5380 5376 5373 5371 5369 5367 5364 5362 5361 5362
5518 5513 5508 5503 5497 5493 5490 5487 5484 5482 5481 5479 5477 5475 5473 5470 5468 5464 5461 5456 5450 5444 5440 5435 5429 5424 5419 5413 5407 5401 5395 5392 5386 5381 5377 5374 5371 5369 5366 5364 5362 5361 5360 5360
5514 5508 5505 5501 5497 5493 5490 5487 5485 5483 5481 5479 5477 5475 5472 5469 5465 5460 5456 5453 5448 5442 5438 5433 5427 5423 5418 5412 5406 5400 5395 5390 5387 5380 5376 5373 5371 5368 5366 5364 5362 5361 5360 5361
5517 5512 5507 5503 5499 5494 5491 5489 5487 5485 5482 5480 5478 5475 5471 5467 5462 5458 5454 5450 5446 5441 5437 5432 5428 5423 5417 5412 5407 5401 5395 5389 5383 5379 5375 5373 5371 5369 5367 5365 5364 5363 5362 5363
5516 5512 5507 5504 5500 5496 5492 5489 5487 5485 5484 5482 5478 5474 5471 5467 5463 5458 5454 5449 5444 5440 5436 5432 5428 5423 5417 5412 5408 5402 5395 5389 5383 5379 5376 5375 5371 5370 5368 5367 5366 5365 5365 5366
5516 5512 5507 5503 5500 5496 5493 5490 5488 5485 5483 5481 5478 5474 5470 5467 5463 5459 5454 5448 5444 5441 5438 5433 5428 5423 5418 5414 5409 5402 5396 5390 5384 5380 5377 5375 5373 5371 5370 5370 5369 5368 5368 5369
5514 5511 5507 5503 5499 5497 5493 5491 5488 5485 5483 5481 5477 5474 5470 5467 5465 5460 5454 5449 5448 5445 5441 5436 5430 5425 5420 5416 5412 5404 5397 5391 5386 5382 5379 5377 5375 5373 5372 5371 5371 5371 5371 5371
5512 5509 5505 5502 5498 5495 5492 5490 5488 5486 5483 5481 5479 5476 5472 5468 5465 5461 5458 5454 5452 5449 5444 5438 5433 5429 5425 5420 5413 5407 5400 5394 5389 5386 5382 5380 5378 5376 5374 5374 5373 5373 5373 5373
5510 5507 5503 5500 5497 5494 5492 5490 5488 5486 5484 5482 5480 5477 5473 5469 5467 5463 5459 5457 5456 5453 5447 5442 5438 5434 5429 5423 5417 5411 5405 5399 5394 5390 5387 5384 5382 5380 5378 5376 5375 5375 5374 5374
5507 5504 5501 5498 5496 5493 5489 5488 5488 5487 5485 5484 5482 5479 5476 5471 5468 5467 5465 5464 5461 5457 5452 5448 5444 5439 5434 5428 5422 5416 5410 5405 5400 5395 5392 5389 5386 5383 5381 5379 5377 5376 5375 5375
5505 5502 5499 5495 5492 5490 5488 5488 5487 5486 5485 5483 5482 5481 5479 5477 5473 5470 5469 5467 5465 5461 5457 5453 5450 5445 5439 5434 5428 5423 5417 5412 5407 5402 5398 5394 5390 5387 5384 5382 5380 5378 5377 5376
5501 5498 5496 5494 5491 5489 5488 5487 5485 5485 5484 5482 5481 5480 5479 5478 5476 5474 5472 5470 5469 5466 5462 5458 5455 5450 5445 5440 5435 5430 5425 5420 5415 5410 5405 5400 5396 5392 5388 5385 5382 5380 5378 5377
5498 5495 5493 5491 5491 5490 5489 5488 5487 5486 5485 5484 5481 5480 5480 5479 5477 5476 5475 5473 5471 5469 5466 5463 5459 5455 5451 5446 5442 5437 5433 5428 5423 5417 5412 5407 5402 5398 5393 5390 5386 5383 5381 5379